| time (UTC) | temp F | wind direction | speed MPH | gust MPH | rain 1hr in | rain 24hr in | rain mn in | humidity % | barometer mb |
| 20260901203604 | 65 | 135 | 0.0 | 1.0 | 0.01 | 0.94 | 0.94 | 96 | 1016.6 |
| 20260901203027 | 65 | 155 | 0.0 | 1.0 | 0.02 | 0.94 | 0.94 | 96 | 1016.6 |
| 20260901202546 | 65 | 161 | 0.0 | 2.0 | 0.03 | 0.94 | 0.94 | 96 | 1016.5 |
| 20260901202028 | 65 | 161 | 1.0 | 2.0 | 0.03 | 0.94 | 0.94 | 96 | 1016.5 |
| 20260901201546 | 65 | 212 | 0.0 | 2.0 | 0.03 | 0.94 | 0.94 | 96 | 1016.4 |
| 20260901201052 | 65 | 212 | 0.0 | 1.0 | 0.03 | 0.94 | 0.94 | 96 | 1016.4 |
| 20260901200559 | 65 | 212 | 0.0 | 1.0 | 0.03 | 0.94 | 0.94 | 96 | 1016.4 |
| 20260901200040 | 65 | 213 | 0.0 | 1.0 | 0.03 | 0.94 | 0.94 | 96 | 1016.4 |
| 20260901195559 | 65 | 213 | 0.0 | 1.0 | 0.03 | 0.94 | 0.94 | 96 | 1016.3 |
| 20260901195040 | 65 | 214 | 0.0 | 1.0 | 0.03 | 0.94 | 0.94 | 96 | 1016.3 |
| 20260901194544 | 65 | 214 | 0.0 | 1.0 | 0.04 | 0.94 | 0.94 | 96 | 1016.3 |
| 20260901194029 | 65 | 214 | 0.0 | 1.0 | 0.04 | 0.93 | 0.93 | 96 | 1016.2 |
| 20260901193534 | 65 | 214 | 0.0 | 3.0 | 0.03 | 0.92 | 0.92 | 96 | 1016.2 |
| 20260901193035 | 65 | 214 | 0.0 | 3.0 | 0.03 | 0.92 | 0.92 | 96 | 1016.3 |
| 20260901192538 | 65 | 214 | 1.0 | 3.0 | 0.02 | 0.91 | 0.91 | 96 | 1016.2 |
| 20260901192040 | 65 | 175 | 0.0 | 1.0 | 0.02 | 0.91 | 0.91 | 96 | 1016.1 |
| 20260901191558 | 65 | 175 | 0.0 | 2.0 | 0.02 | 0.91 | 0.91 | 96 | 1016.1 |
| 20260901191026 | 65 | 175 | 0.0 | 2.0 | 0.03 | 0.91 | 0.91 | 96 | 1016.1 |
| 20260901190552 | 65 | 175 | 0.0 | 1.0 | 0.03 | 0.91 | 0.91 | 96 | 1016.1 |
| 20260901190035 | 65 | 175 | 0.0 | 1.0 | 0.03 | 0.91 | 0.91 | 96 | 1016.0 |
| 20260901185538 | 65 | 175 | 0.0 | 1.0 | 0.03 | 0.91 | 0.91 | 96 | 1016.1 |
| 20260901185042 | 65 | 175 | 0.0 | 2.0 | 0.03 | 0.91 | 0.91 | 96 | 1016.2 |
| 20260901184543 | 65 | 174 | 0.0 | 2.0 | 0.02 | 0.90 | 0.90 | 96 | 1016.2 |
| 20260901184026 | 66 | 174 | 0.0 | 1.0 | 0.01 | 0.89 | 0.89 | 96 | 1016.2 |
| 20260901183550 | 66 | 174 | 0.0 | 0.0 | 0.01 | 0.89 | 0.89 | 96 | 1016.3 |
| 20260901183033 | 66 | 174 | 0.0 | 1.0 | 0.01 | 0.89 | 0.89 | 96 | 1016.2 |
| 20260901182535 | 65 | 174 | 0.0 | 1.0 | 0.01 | 0.89 | 0.89 | 96 | 1016.1 |
| 20260901182052 | 66 | 174 | 0.0 | 1.0 | 0.01 | 0.89 | 0.89 | 96 | 1016.1 |
| 20260901181551 | 66 | 174 | 0.0 | 1.0 | 0.00 | 0.88 | 0.88 | 96 | 1016.1 |
| 20260901181035 | 66 | 174 | 0.0 | 0.0 | 0.00 | 0.88 | 0.88 | 96 | 1016.2 |
| 20260901180559 | 66 | 174 | 0.0 | 1.0 | 0.00 | 0.88 | 0.88 | 96 | 1016.1 |
| 20260901180040 | 66 | 174 | 0.0 | 1.0 | 0.00 | 0.88 | 0.88 | 96 | 1016.0 |
| 20260901175526 | 66 | 174 | 0.0 | 0.0 | 0.00 | 0.88 | 0.88 | 96 | 1016.0 |
| 20260901175029 | 66 | 174 | 0.0 | 0.0 | 0.00 | 0.88 | 0.88 | 96 | 1015.9 |
| 20260901174535 | 66 | 175 | 0.0 | 1.0 | 0.01 | 0.88 | 0.88 | 96 | 1016.0 |
| 20260901174037 | 66 | 175 | 0.0 | 1.0 | 0.01 | 0.88 | 0.88 | 96 | 1016.0 |
| 20260901173600 | 66 | 173 | 0.0 | 1.0 | 0.02 | 0.88 | 0.88 | 96 | 1015.8 |
| 20260901173044 | 66 | 173 | 0.0 | 1.0 | 0.02 | 0.88 | 0.88 | 96 | 1015.9 |
| 20260901172553 | 66 | 173 | 0.0 | 0.0 | 0.03 | 0.88 | 0.88 | 97 | 1015.8 |
| 20260901172103 | 66 | 173 | 0.0 | 1.0 | 0.03 | 0.88 | 0.88 | 96 | 1015.8 |
| 20260901171524 | 66 | 173 | 0.0 | 0.0 | 0.04 | 0.88 | 0.88 | 96 | 1015.8 |
| 20260901171027 | 66 | 173 | 0.0 | 1.0 | 0.06 | 0.88 | 0.88 | 97 | 1015.8 |
| 20260901170528 | 66 | 173 | 0.0 | 0.0 | 0.23 | 0.88 | 0.88 | 96 | 1015.8 |
| 20260901170029 | 66 | 173 | 0.0 | 0.0 | 0.27 | 0.88 | 0.88 | 97 | 1015.8 |
| 20260901165532 | 65 | 173 | 0.0 | 1.0 | 0.27 | 0.88 | 0.88 | 96 | 1015.8 |
| 20260901165035 | 65 | 173 | 0.0 | 1.0 | 0.27 | 0.88 | 0.88 | 96 | 1015.8 |
| 20260901164538 | 65 | 173 | 0.0 | 1.0 | 0.26 | 0.87 | 0.87 | 96 | 1015.7 |
| 20260901164057 | 65 | 173 | 0.0 | 1.0 | 0.26 | 0.87 | 0.87 | 96 | 1015.6 |
| 20260901163536 | 65 | 173 | 0.0 | 0.0 | 0.25 | 0.86 | 0.86 | 96 | 1015.9 |
| 20260901163039 | 65 | 173 | 0.0 | 1.0 | 0.25 | 0.86 | 0.86 | 96 | 1015.7 |
| 20260901162543 | 65 | 173 | 0.0 | 1.0 | 0.24 | 0.85 | 0.85 | 96 | 1015.7 |
| 20260901162029 | 65 | 173 | 0.0 | 2.0 | 0.24 | 0.85 | 0.85 | 96 | 1016.0 |
| 20260901161535 | 65 | 173 | 0.0 | 2.0 | 0.23 | 0.84 | 0.84 | 96 | 1016.0 |
| 20260901161038 | 65 | 173 | 0.0 | 3.0 | 0.20 | 0.81 | 0.81 | 96 | 1015.9 |
| 20260901160548 | 65 | 175 | 2.0 | 3.0 | 0.04 | 0.65 | 0.65 | 96 | 1016.1 |
| 20260901160024 | 65 | 328 | 2.0 | 3.0 | 0.00 | 0.61 | 0.61 | 96 | 1016.5 |
| 20260901155603 | 65 | 330 | 0.0 | 1.0 | 0.00 | 0.61 | 0.61 | 96 | 1015.8 |
| 20260901155048 | 65 | 330 | 0.0 | 1.0 | 0.00 | 0.61 | 0.61 | 96 | 1015.8 |
| 20260901154551 | 65 | 331 | 0.0 | 1.0 | 0.00 | 0.61 | 0.61 | 96 | 1015.8 |
| 20260901154037 | 66 | 355 | 0.0 | 1.0 | 0.00 | 0.61 | 0.61 | 96 | 1015.8 |
| 20260901153541 | 65 | 115 | 0.0 | 1.0 | 0.00 | 0.61 | 0.61 | 96 | 1015.8 |
| 20260901153043 | 65 | 116 | 0.0 | 1.0 | 0.01 | 0.61 | 0.61 | 96 | 1015.7 |
| 20260901152542 | 65 | 115 | 0.0 | 1.0 | 0.01 | 0.61 | 0.61 | 96 | 1015.9 |
| 20260901152051 | 65 | 116 | 0.0 | 1.0 | 0.01 | 0.61 | 0.61 | 96 | 1016.0 |
| 20260901151533 | 65 | 115 | 0.0 | 1.0 | 0.01 | 0.61 | 0.61 | 96 | 1015.9 |
| 20260901151042 | 65 | 115 | 0.0 | 0.0 | 0.01 | 0.61 | 0.61 | 96 | 1016.1 |
| 20260901150526 | 65 | 115 | 0.0 | 1.0 | 0.01 | 0.61 | 0.61 | 97 | 1016.1 |
| 20260901150028 | 65 | 115 | 0.0 | 1.0 | 0.01 | 0.61 | 0.61 | 97 | 1016.1 |
| 20260901145531 | 65 | 199 | 0.0 | 1.0 | 0.01 | 0.61 | 0.61 | 97 | 1016.2 |
| 20260901145029 | 65 | 199 | 0.0 | 0.0 | 0.02 | 0.61 | 0.61 | 96 | 1016.1 |
| 20260901144550 | 65 | 199 | 0.0 | 0.0 | 0.03 | 0.61 | 0.61 | 96 | 1016.3 |
| 20260901144051 | 65 | 199 | 0.0 | 0.0 | 0.03 | 0.61 | 0.61 | 96 | 1016.4 |
| 20260901143526 | 65 | 199 | 0.0 | 0.0 | 0.03 | 0.61 | 0.61 | 96 | 1016.3 |
| 20260901143042 | 65 | 199 | 0.0 | 0.0 | 0.02 | 0.60 | 0.60 | 96 | 1016.5 |
| 20260901142548 | 64 | 199 | 0.0 | 0.0 | 0.02 | 0.60 | 0.60 | 96 | 1016.4 |
| 20260901142052 | 64 | 199 | 0.0 | 0.0 | 0.03 | 0.60 | 0.60 | 97 | 1016.4 |
| 20260901141552 | 64 | 199 | 0.0 | 1.0 | 0.03 | 0.60 | 0.60 | 96 | 1016.5 |
| 20260901141040 | 64 | 193 | 0.0 | 1.0 | 0.03 | 0.60 | 0.60 | 96 | 1016.4 |
| 20260901140545 | 64 | 201 | 0.0 | 1.0 | 0.03 | 0.60 | 0.60 | 96 | 1016.4 |
| 20260901140025 | 64 | 201 | 0.0 | 2.0 | 0.03 | 0.60 | 0.60 | 96 | 1016.6 |
| 20260901135528 | 64 | 201 | 0.0 | 2.0 | 0.03 | 0.60 | 0.60 | 96 | 1016.6 |
| 20260901135031 | 64 | 201 | 0.0 | 1.0 | 0.02 | 0.59 | 0.59 | 96 | 1016.8 |
| 20260901134545 | 64 | 201 | 0.0 | 1.0 | 0.01 | 0.58 | 0.58 | 96 | 1016.7 |
| 20260901134053 | 64 | 201 | 0.0 | 1.0 | 0.03 | 0.58 | 0.58 | 96 | 1016.8 |
| 20260901133525 | 64 | 202 | 0.0 | 0.0 | 0.05 | 0.58 | 0.58 | 96 | 1016.9 |
| 20260901133047 | 64 | 201 | 0.0 | 1.0 | 0.09 | 0.58 | 0.58 | 96 | 1016.8 |
| 20260901132549 | 64 | 201 | 0.0 | 1.0 | 0.12 | 0.58 | 0.58 | 96 | 1016.8 |
| 20260901132052 | 64 | 201 | 0.0 | 1.0 | 0.17 | 0.57 | 0.57 | 96 | 1016.7 |
| 20260901131538 | 64 | 201 | 0.0 | 1.0 | 0.19 | 0.57 | 0.57 | 96 | 1016.8 |
| 20260901131044 | 64 | 201 | 0.0 | 2.0 | 0.20 | 0.57 | 0.57 | 96 | 1016.7 |
| 20260901130603 | 64 | 192 | 0.0 | 2.0 | 0.20 | 0.57 | 0.57 | 96 | 1016.8 |
| 20260901130028 | 64 | 159 | 0.0 | 2.0 | 0.20 | 0.57 | 0.57 | 96 | 1016.7 |
| 20260901125535 | 64 | 87 | 0.0 | 2.0 | 0.20 | 0.57 | 0.57 | 96 | 1016.6 |
| 20260901125038 | 64 | 24 | 1.0 | 2.0 | 0.20 | 0.57 | 0.57 | 96 | 1016.6 |
| 20260901124530 | 64 | 165 | 0.0 | 0.0 | 0.21 | 0.57 | 0.57 | 96 | 1016.9 |
| 20260901124034 | 64 | 165 | 0.0 | 0.0 | 0.19 | 0.55 | 0.55 | 96 | 1016.8 |
| 20260901123538 | 64 | 165 | 0.0 | 2.0 | 0.16 | 0.52 | 0.52 | 96 | 1016.9 |
| 20260901123036 | 65 | 165 | 0.0 | 2.0 | 0.13 | 0.49 | 0.49 | 96 | 1017.0 |
| 20260901122540 | 65 | 232 | 0.0 | 2.0 | 0.11 | 0.46 | 0.46 | 96 | 1016.9 |
| 20260901122059 | 65 | 232 | 0.0 | 2.0 | 0.05 | 0.40 | 0.40 | 96 | 1016.9 |
| 20260901121528 | 65 | 232 | 1.0 | 2.0 | 0.03 | 0.38 | 0.38 | 96 | 1016.8 |
| 20260901121032 | 64 | 231 | 0.0 | 1.0 | 0.03 | 0.37 | 0.37 | 96 | 1016.5 |
| 20260901120040 | 64 | 231 | 0.0 | 1.0 | 0.10 | 0.37 | 0.37 | 96 | 1016.4 |
| 20260901115539 | 64 | 231 | 0.0 | 1.0 | 0.13 | 0.37 | 0.37 | 96 | 1016.4 |
| 20260901115042 | 64 | 232 | 0.0 | 0.0 | 0.15 | 0.37 | 0.37 | 96 | 1016.4 |
| 20260901114545 | 64 | 232 | 0.0 | 0.0 | 0.16 | 0.36 | 0.36 | 96 | 1016.5 |
| 20260901114028 | 64 | 232 | 0.0 | 1.0 | 0.22 | 0.36 | 0.36 | 96 | 1016.4 |
| 20260901113532 | 64 | 232 | 0.0 | 1.0 | 0.24 | 0.36 | 0.36 | 96 | 1016.4 |
| 20260901113034 | 64 | 232 | 0.0 | 0.0 | 0.25 | 0.36 | 0.36 | 96 | 1016.4 |
| 20260901112537 | 64 | 232 | 0.0 | 0.0 | 0.25 | 0.35 | 0.35 | 96 | 1016.3 |
| 20260901112036 | 64 | 232 | 0.0 | 1.0 | 0.27 | 0.35 | 0.35 | 96 | 1016.3 |
| 20260901111539 | 64 | 232 | 0.0 | 2.0 | 0.28 | 0.35 | 0.35 | 96 | 1016.3 |
| 20260901111042 | 64 | 232 | 0.0 | 2.0 | 0.28 | 0.34 | 0.34 | 96 | 1016.2 |
| 20260901110603 | 64 | 233 | 0.0 | 1.0 | 0.23 | 0.29 | 0.29 | 96 | 1016.1 |
| 20260901110045 | 64 | 233 | 0.0 | 0.0 | 0.20 | 0.26 | 0.26 | 96 | 1016.4 |
| 20260901105551 | 64 | 233 | 0.0 | 0.0 | 0.19 | 0.24 | 0.24 | 96 | 1016.6 |
| 20260901105032 | 64 | 233 | 0.0 | 0.0 | 0.18 | 0.22 | 0.22 | 96 | 1016.4 |
| 20260901104555 | 64 | 233 | 0.0 | 0.0 | 0.16 | 0.20 | 0.20 | 96 | 1016.4 |
| 20260901104112 | 64 | 233 | 0.0 | 0.0 | 0.10 | 0.14 | 0.14 | 96 | 1016.6 |
| 20260901103536 | 64 | 233 | 0.0 | 0.0 | 0.08 | 0.12 | 0.12 | 96 | 1016.3 |
| 20260901103037 | 64 | 232 | 0.0 | 0.0 | 0.07 | 0.11 | 0.11 | 96 | 1016.2 |
| 20260901102543 | 64 | 232 | 0.0 | 0.0 | 0.06 | 0.10 | 0.10 | 96 | 1016.1 |
| 20260901102026 | 64 | 232 | 0.0 | 0.0 | 0.04 | 0.08 | 0.08 | 96 | 1016.2 |
| 20260901101528 | 64 | 232 | 0.0 | 0.0 | 0.03 | 0.07 | 0.07 | 96 | 1016.2 |
| 20260901101031 | 64 | 232 | 0.0 | 0.0 | 0.02 | 0.06 | 0.06 | 96 | 1016.2 |
| 20260901100536 | 64 | 232 | 0.0 | 0.0 | 0.02 | 0.06 | 0.06 | 96 | 1016.1 |
| 20260901100040 | 64 | 232 | 0.0 | 0.0 | 0.03 | 0.06 | 0.06 | 96 | 1016.1 |
| 20260901095543 | 64 | 232 | 0.0 | 0.0 | 0.02 | 0.05 | 0.05 | 96 | 1016.0 |
| 20260901095026 | 64 | 232 | 0.0 | 0.0 | 0.01 | 0.04 | 0.04 | 96 | 1016.0 |
| 20260901094529 | 64 | 232 | 0.0 | 0.0 | 0.01 | 0.04 | 0.04 | 96 | 1016.0 |
| 20260901094028 | 64 | 232 | 0.0 | 0.0 | 0.01 | 0.04 | 0.04 | 96 | 1016.1 |
| 20260901093532 | 64 | 232 | 0.0 | 0.0 | 0.01 | 0.04 | 0.04 | 96 | 1016.1 |
| 20260901093036 | 64 | 232 | 0.0 | 0.0 | 0.01 | 0.04 | 0.04 | 96 | 1016.2 |
| 20260901092554 | 64 | 232 | 0.0 | 0.0 | 0.01 | 0.04 | 0.04 | 96 | 1016.3 |
| 20260901092056 | 64 | 232 | 0.0 | 0.0 | 0.01 | 0.04 | 0.04 | 96 | 1016.2 |
| 20260901091538 | 64 | 232 | 0.0 | 0.0 | 0.01 | 0.04 | 0.04 | 96 | 1016.2 |
| 20260901091037 | 64 | 232 | 0.0 | 0.0 | 0.01 | 0.04 | 0.04 | 96 | 1016.3 |
| 20260901090545 | 64 | 232 | 0.0 | 0.0 | 0.02 | 0.04 | 0.04 | 96 | 1016.3 |
| 20260901090027 | 64 | 232 | 0.0 | 0.0 | 0.01 | 0.03 | 0.03 | 96 | 1016.5 |
| 20260901085530 | 64 | 232 | 0.0 | 0.0 | 0.01 | 0.03 | 0.03 | 96 | 1016.6 |
| 20260901085033 | 64 | 232 | 0.0 | 0.0 | 0.01 | 0.03 | 0.03 | 96 | 1016.6 |
| 20260901084551 | 64 | 232 | 0.0 | 0.0 | 0.02 | 0.03 | 0.03 | 96 | 1016.6 |
| 20260901084041 | 64 | 232 | 0.0 | 0.0 | 0.02 | 0.03 | 0.03 | 96 | 1016.6 |
| 20260901083541 | 64 | 232 | 0.0 | 0.0 | 0.02 | 0.03 | 0.03 | 96 | 1016.6 |
| 20260901083042 | 64 | 232 | 0.0 | 0.0 | 0.03 | 0.03 | 0.03 | 96 | 1016.5 |
| 20260901082527 | 64 | 232 | 0.0 | 0.0 | 0.03 | 0.03 | 0.03 | 96 | 1016.7 |
| 20260901082030 | 64 | 232 | 0.0 | 0.0 | 0.03 | 0.03 | 0.03 | 96 | 1016.7 |
| 20260901081533 | 63 | 232 | 0.0 | 0.0 | 0.03 | 0.03 | 0.03 | 96 | 1016.8 |
| 20260901081111 | 64 | 232 | 0.0 | 0.0 | 0.03 | 0.03 | 0.03 | 96 | 1016.9 |
| 20260901080550 | 63 | 232 | 0.0 | 0.0 | 0.02 | 0.02 | 0.02 | 96 | 1016.8 |
| 20260901080051 | 63 | 232 | 0.0 | 0.0 | 0.02 | 0.02 | 0.02 | 96 | 1016.9 |
| 20260901075533 | 63 | 232 | 0.0 | 0.0 | 0.02 | 0.02 | 0.02 | 96 | 1016.9 |
| 20260901075036 | 63 | 232 | 0.0 | 0.0 | 0.02 | 0.02 | 0.02 | 96 | 1016.9 |
| 20260901074539 | 63 | 232 | 0.0 | 0.0 | 0.01 | 0.01 | 0.01 | 96 | 1017.0 |
| 20260901074025 | 63 | 232 | 0.0 | 0.0 | 0.01 | 0.01 | 0.01 | 96 | 1017.1 |
| 20260901073532 | 63 | 232 | 0.0 | 0.0 | 0.01 | 0.01 | 0.01 | 96 | 1017.1 |
| 20260901073050 | 63 | 232 | 0.0 | 0.0 | 0.00 | 0.00 | 0.00 | 96 | 1017.0 |
| 20260901072535 | 63 | 232 | 0.0 | 0.0 | 0.00 | 0.00 | 0.00 | 96 | 1017.1 |
| 20260901072038 | 63 | 232 | 0.0 | 0.0 | 0.00 | 0.00 | 0.00 | 96 | 1017.0 |
| 20260901071556 | 63 | 232 | 0.0 | 0.0 | 0.00 | 0.00 | 0.00 | 96 | 1017.0 |
| 20260901071058 | 63 | 232 | 0.0 | 0.0 | 0.00 | 0.00 | 0.00 | 96 | 1017.1 |
| 20260901070534 | 63 | 232 | 0.0 | 0.0 | 0.00 | 0.00 | 0.00 | 96 | 1017.0 |
| 20260901070050 | 63 | 232 | 0.0 | 0.0 | 0.00 | 0.00 | 0.00 | 96 | 1017.1 |
| 20260901065551 | 63 | 232 | 0.0 | 0.0 | 0.00 | 0.00 | 0.00 | 96 | 1017.2 |
| 20260901065054 | 63 | 232 | 0.0 | 0.0 | 0.00 | 0.00 | 0.00 | 96 | 1017.3 |
| 20260901064537 | 63 | 232 | 0.0 | 0.0 | 0.00 | 0.00 | 0.00 | 96 | 1017.3 |
| 20260901064041 | 63 | 232 | 0.0 | 0.0 | 0.00 | 0.00 | 0.00 | 96 | 1017.5 |
| 20260901063545 | 63 | 232 | 0.0 | 0.0 | 0.00 | 0.00 | 0.00 | 96 | 1017.5 |
| 20260901063047 | 63 | 232 | 0.0 | 0.0 | 0.00 | 0.00 | 0.00 | 96 | 1017.6 |
| 20260901062529 | 63 | 232 | 0.0 | 0.0 | 0.00 | 0.00 | 0.00 | 96 | 1017.7 |
| 20260901062028 | 63 | 232 | 0.0 | 0.0 | 0.00 | 0.00 | 0.00 | 96 | 1017.7 |
| 20260901061534 | 63 | 232 | 0.0 | 0.0 | 0.00 | 0.00 | 0.00 | 96 | 1017.7 |
| 20260901061040 | 63 | 232 | 0.0 | 0.0 | 0.00 | 0.00 | 0.00 | 96 | 1017.7 |
| 20260901060543 | 63 | 232 | 0.0 | 0.0 | 0.00 | 0.00 | 0.00 | 96 | 1017.6 |
| 20260901060025 | 63 | 232 | 0.0 | 0.0 | 0.00 | 0.00 | 0.00 | 96 | 1017.5 |
| 20260901055528 | 63 | 232 | 0.0 | 0.0 | 0.00 | 0.00 | 0.00 | 96 | 1017.6 |
| 20260901055049 | 63 | 232 | 0.0 | 0.0 | 0.00 | 0.00 | 0.00 | 96 | 1017.6 |
| 20260901054550 | 63 | 232 | 0.0 | 0.0 | 0.00 | 0.00 | 0.00 | 95 | 1017.6 |
| 20260901054055 | 63 | 232 | 0.0 | 0.0 | 0.00 | 0.00 | 0.00 | 95 | 1017.5 |
| 20260901053527 | 63 | 232 | 0.0 | 0.0 | 0.00 | 0.00 | 0.00 | 95 | 1017.4 |
| 20260901053044 | 63 | 232 | 0.0 | 0.0 | 0.00 | 0.00 | 0.00 | 95 | 1017.5 |
| 20260901052547 | 63 | 232 | 0.0 | 0.0 | 0.00 | 0.00 | 0.00 | 96 | 1017.9 |
| 20260901052050 | 63 | 232 | 0.0 | 0.0 | 0.00 | 0.00 | 0.00 | 95 | 1018.2 |
| 20260901051539 | 63 | 232 | 0.0 | 0.0 | 0.00 | 0.00 | 0.00 | 95 | 1018.2 |
| 20260901051101 | 63 | 232 | 0.0 | 0.0 | 0.00 | 0.00 | 0.00 | 95 | 1018.2 |
| 20260901050545 | 63 | 232 | 0.0 | 0.0 | 0.00 | 0.00 | 0.00 | 95 | 1018.2 |
| 20260901050049 | 63 | 232 | 0.0 | 0.0 | 0.00 | 0.00 | 0.00 | 95 | 1018.2 |
| 20260901045531 | 63 | 232 | 0.0 | 0.0 | 0.00 | 0.00 | 0.00 | 95 | 1018.2 |
| 20260901045049 | 63 | 232 | 0.0 | 0.0 | 0.00 | 0.00 | 0.00 | 95 | 1018.3 |
| 20260901044551 | 63 | 232 | 0.0 | 0.0 | 0.00 | 0.00 | 0.00 | 95 | 1018.2 |
| 20260901044029 | 63 | 232 | 0.0 | 0.0 | 0.00 | 0.00 | 0.00 | 95 | 1018.2 |
| 20260901043534 | 63 | 232 | 0.0 | 0.0 | 0.00 | 0.00 | 0.00 | 95 | 1018.1 |
| 20260901043040 | 63 | 232 | 0.0 | 0.0 | 0.00 | 0.00 | 0.00 | 95 | 1018.1 |
| 20260901042526 | 63 | 232 | 0.0 | 0.0 | 0.00 | 0.00 | 0.00 | 95 | 1018.1 |
| 20260901042029 | 63 | 232 | 0.0 | 0.0 | 0.00 | 0.00 | 0.00 | 95 | 1018.1 |
| 20260901041607 | 63 | 232 | 0.0 | 0.0 | 0.00 | 0.00 | 0.00 | 95 | 1018.0 |
| 20260901041045 | 63 | 232 | 0.0 | 0.0 | 0.00 | 0.00 | 0.00 | 95 | 1018.1 |
| 20260901040529 | 63 | 232 | 0.0 | 0.0 | 0.00 | 0.00 | 0.00 | 95 | 1018.1 |
| 20260901040031 | 63 | 232 | 0.0 | 0.0 | 0.00 | 0.00 | 0.00 | 95 | 1018.1 |
| 20260901035534 | 63 | 232 | 0.0 | 0.0 | 0.00 | 0.00 | 0.00 | 95 | 1018.1 |
| 20260901035037 | 63 | 232 | 0.0 | 0.0 | 0.00 | 0.00 | 0.00 | 95 | 1018.2 |
| 20260901034540 | 64 | 232 | 0.0 | 0.0 | 0.00 | 0.00 | 0.00 | 95 | 1018.3 |
| 20260901034026 | 64 | 232 | 0.0 | 0.0 | 0.00 | 0.00 | 0.00 | 95 | 1018.4 |
| 20260901033533 | 64 | 232 | 0.0 | 0.0 | 0.00 | 0.00 | 0.00 | 95 | 1018.5 |
| 20260901033031 | 64 | 232 | 0.0 | 0.0 | 0.00 | 0.00 | 0.00 | 95 | 1018.3 |
| 20260901032537 | 64 | 232 | 0.0 | 0.0 | 0.00 | 0.00 | 0.00 | 95 | 1018.5 |
| 20260901032040 | 64 | 232 | 0.0 | 0.0 | 0.00 | 0.00 | 0.00 | 95 | 1018.5 |
| 20260901031542 | 64 | 232 | 0.0 | 0.0 | 0.00 | 0.00 | 0.00 | 95 | 1018.4 |
| 20260901031101 | 64 | 232 | 0.0 | 0.0 | 0.00 | 0.00 | 0.00 | 95 | 1018.5 |
| 20260901030547 | 64 | 232 | 0.0 | 0.0 | 0.00 | 0.00 | 0.00 | 95 | 1018.5 |
| 20260901030045 | 64 | 232 | 0.0 | 0.0 | 0.00 | 0.00 | 0.00 | 95 | 1018.5 |
| 20260901025527 | 64 | 232 | 0.0 | 0.0 | 0.00 | 0.00 | 0.00 | 95 | 1018.5 |
| 20260901025029 | 64 | 232 | 0.0 | 0.0 | 0.00 | 0.00 | 0.00 | 94 | 1018.6 |
| 20260901024552 | 64 | 232 | 0.0 | 0.0 | 0.00 | 0.00 | 0.00 | 95 | 1018.7 |
| 20260901024036 | 64 | 232 | 0.0 | 0.0 | 0.00 | 0.00 | 0.00 | 95 | 1018.8 |
| 20260901023541 | 64 | 232 | 0.0 | 0.0 | 0.00 | 0.00 | 0.00 | 95 | 1018.8 |
| 20260901023056 | 64 | 232 | 0.0 | 0.0 | 0.00 | 0.00 | 0.00 | 95 | 1018.8 |
| 20260901022532 | 64 | 232 | 0.0 | 0.0 | 0.00 | 0.00 | 0.00 | 94 | 1018.8 |
| 20260901022041 | 64 | 232 | 0.0 | 0.0 | 0.00 | 0.00 | 0.00 | 94 | 1018.8 |
| 20260901021543 | 64 | 232 | 0.0 | 0.0 | 0.00 | 0.00 | 0.00 | 94 | 1018.8 |
| 20260901021024 | 64 | 232 | 0.0 | 0.0 | 0.00 | 0.00 | 0.00 | 94 | 1018.8 |
| 20260901020534 | 65 | 232 | 0.0 | 0.0 | 0.00 | 0.00 | 0.00 | 94 | 1018.7 |
| 20260901020037 | 65 | 232 | 0.0 | 0.0 | 0.00 | 0.00 | 0.00 | 94 | 1018.7 |
| 20260901015541 | 65 | 232 | 0.0 | 0.0 | 0.00 | 0.00 | 0.00 | 94 | 1018.6 |
| 20260901015039 | 65 | 232 | 0.0 | 0.0 | 0.00 | 0.00 | 0.00 | 94 | 1018.5 |
| 20260901014543 | 65 | 232 | 0.0 | 0.0 | 0.00 | 0.00 | 0.00 | 94 | 1018.5 |
| 20260901014025 | 65 | 232 | 0.0 | 0.0 | 0.00 | 0.00 | 0.00 | 93 | 1018.6 |
| 20260901013532 | 65 | 232 | 0.0 | 0.0 | 0.00 | 0.00 | 0.00 | 93 | 1018.6 |
| 20260901013036 | 65 | 232 | 0.0 | 0.0 | 0.00 | 0.00 | 0.00 | 93 | 1018.7 |
| 20260901012540 | 65 | 232 | 0.0 | 0.0 | 0.00 | 0.00 | 0.00 | 93 | 1018.7 |
| 20260901012043 | 66 | 232 | 0.0 | 0.0 | 0.00 | 0.00 | 0.00 | 92 | 1018.8 |
| 20260901011545 | 66 | 232 | 0.0 | 0.0 | 0.00 | 0.00 | 0.00 | 93 | 1018.8 |
| 20260901011103 | 66 | 232 | 0.0 | 0.0 | 0.00 | 0.00 | 0.00 | 93 | 1018.8 |
| 20260901010549 | 66 | 232 | 0.0 | 0.0 | 0.00 | 0.00 | 0.00 | 92 | 1018.9 |
| 20260901010050 | 66 | 232 | 0.0 | 0.0 | 0.00 | 0.01 | 0.00 | 92 | 1018.8 |
| 20260901005553 | 66 | 232 | 0.0 | 0.0 | 0.00 | 0.01 | 0.00 | 92 | 1018.9 |
| 20260901005037 | 66 | 232 | 0.0 | 0.0 | 0.00 | 0.01 | 0.00 | 92 | 1018.8 |
| 20260901004611 | 66 | 232 | 0.0 | 0.0 | 0.00 | 0.01 | 0.00 | 92 | 1018.8 |
| 20260901004052 | 66 | 232 | 0.0 | 0.0 | 0.00 | 0.01 | 0.00 | 92 | 1018.8 |
| 20260901003559 | 66 | 232 | 0.0 | 0.0 | 0.00 | 0.01 | 0.00 | 92 | 1018.8 |
| 20260901003039 | 66 | 232 | 0.0 | 0.0 | 0.00 | 0.01 | 0.00 | 92 | 1018.7 |
| 20260901002545 | 66 | 232 | 0.0 | 0.0 | 0.00 | 0.01 | 0.00 | 92 | 1018.7 |
| 20260901002050 | 66 | 232 | 0.0 | 0.0 | 0.00 | 0.01 | 0.00 | 92 | 1018.6 |
| 20260901001533 | 66 | 232 | 0.0 | 0.0 | 0.00 | 0.01 | 0.00 | 92 | 1018.7 |
| 20260901001054 | 66 | 232 | 0.0 | 0.0 | 0.00 | 0.01 | 0.00 | 92 | 1018.5 |
| 20260901000557 | 67 | 232 | 0.0 | 0.0 | 0.00 | 0.01 | 0.00 | 92 | 1018.6 |
| 20260901000053 | 67 | 232 | 0.0 | 0.0 | 0.00 | 0.05 | 0.00 | 91 | 1018.5 |
| 20260831235555 | 67 | 232 | 0.0 | 0.0 | 0.00 | 0.05 | 0.00 | 91 | 1018.5 |
| 20260831235044 | 67 | 232 | 0.0 | 0.0 | 0.00 | 0.05 | 0.00 | 91 | 1018.5 |
| 20260831234547 | 67 | 232 | 0.0 | 0.0 | 0.00 | 0.05 | 0.00 | 91 | 1018.5 |
| 20260831234026 | 67 | 232 | 0.0 | 0.0 | 0.00 | 0.05 | 0.00 | 91 | 1018.6 |
| 20260831233607 | 67 | 232 | 0.0 | 0.0 | 0.00 | 0.05 | 0.00 | 91 | 1018.6 |
| 20260831233047 | 68 | 232 | 0.0 | 0.0 | 0.00 | 0.05 | 0.00 | 90 | 1018.7 |
| 20260831232553 | 68 | 232 | 0.0 | 0.0 | 0.00 | 0.05 | 0.00 | 90 | 1018.7 |
| 20260831232058 | 68 | 232 | 0.0 | 0.0 | 0.00 | 0.05 | 0.00 | 90 | 1018.7 |
| 20260831231540 | 68 | 232 | 0.0 | 0.0 | 0.00 | 0.05 | 0.00 | 90 | 1018.7 |
| 20260831231039 | 68 | 232 | 0.0 | 0.0 | 0.00 | 0.05 | 0.00 | 89 | 1018.8 |
| 20260831230543 | 68 | 232 | 0.0 | 0.0 | 0.00 | 0.05 | 0.00 | 89 | 1018.8 |
| 20260831230043 | 68 | 232 | 0.0 | 0.0 | 0.00 | 0.05 | 0.00 | 88 | 1018.9 |
| 20260831225525 | 69 | 232 | 0.0 | 0.0 | 0.00 | 0.05 | 0.00 | 88 | 1018.9 |
| 20260831225028 | 69 | 232 | 0.0 | 0.0 | 0.00 | 0.05 | 0.00 | 88 | 1019.0 |
| 20260831224606 | 69 | 232 | 0.0 | 0.0 | 0.00 | 0.05 | 0.00 | 88 | 1018.9 |
| 20260831224044 | 69 | 232 | 0.0 | 0.0 | 0.00 | 0.05 | 0.00 | 87 | 1018.9 |
| 20260831223531 | 69 | 232 | 0.0 | 0.0 | 0.00 | 0.05 | 0.00 | 88 | 1018.9 |
| 20260831223032 | 69 | 232 | 0.0 | 0.0 | 0.00 | 0.05 | 0.00 | 89 | 1018.9 |
| 20260831222554 | 69 | 232 | 0.0 | 0.0 | 0.00 | 0.05 | 0.00 | 89 | 1019.0 |
| 20260831222039 | 69 | 232 | 0.0 | 0.0 | 0.00 | 0.05 | 0.00 | 89 | 1019.0 |
| 20260831221542 | 69 | 232 | 0.0 | 0.0 | 0.00 | 0.05 | 0.00 | 89 | 1019.2 |
| 20260831221058 | 69 | 232 | 0.0 | 0.0 | 0.00 | 0.05 | 0.00 | 90 | 1019.1 |
| 20260831220600 | 68 | 232 | 0.0 | 0.0 | 0.00 | 0.05 | 0.00 | 90 | 1019.1 |
| 20260831220040 | 68 | 232 | 0.0 | 0.0 | 0.00 | 0.05 | 0.00 | 89 | 1019.0 |
| 20260831215542 | 68 | 232 | 0.0 | 0.0 | 0.00 | 0.05 | 0.00 | 90 | 1019.0 |
| 20260831215045 | 68 | 232 | 0.0 | 0.0 | 0.00 | 0.05 | 0.00 | 89 | 1019.0 |
| 20260831214527 | 68 | 232 | 0.0 | 0.0 | 0.00 | 0.05 | 0.00 | 90 | 1019.0 |
| 20260831214030 | 68 | 232 | 0.0 | 0.0 | 0.00 | 0.05 | 0.00 | 90 | 1019.1 |
| 20260831213533 | 68 | 232 | 0.0 | 0.0 | 0.00 | 0.05 | 0.00 | 89 | 1019.0 |
| 20260831213029 | 68 | 232 | 0.0 | 0.0 | 0.00 | 0.05 | 0.00 | 89 | 1019.1 |
| 20260831212532 | 68 | 232 | 0.0 | 0.0 | 0.00 | 0.05 | 0.00 | 89 | 1019.1 |
| 20260831212039 | 68 | 232 | 0.0 | 0.0 | 0.00 | 0.05 | 0.00 | 89 | 1019.1 |
| 20260831211543 | 68 | 232 | 0.0 | 0.0 | 0.00 | 0.05 | 0.00 | 89 | 1019.1 |
| 20260831211100 | 68 | 232 | 0.0 | 0.0 | 0.00 | 0.05 | 0.00 | 89 | 1019.1 |
| 20260831210602 | 68 | 232 | 0.0 | 0.0 | 0.00 | 0.05 | 0.00 | 88 | 1019.1 |
| 20260831210041 | 68 | 232 | 0.0 | 0.0 | 0.00 | 0.05 | 0.00 | 88 | 1019.0 |
| 20260831205544 | 68 | 232 | 0.0 | 0.0 | 0.00 | 0.05 | 0.00 | 89 | 1018.9 |
| 20260831205030 | 68 | 232 | 0.0 | 0.0 | 0.00 | 0.05 | 0.00 | 90 | 1019.1 |
| 20260831204536 | 68 | 232 | 0.0 | 0.0 | 0.00 | 0.05 | 0.00 | 90 | 1019.0 |
| 20260831204039 | 68 | 232 | 0.0 | 0.0 | 0.00 | 0.05 | 0.00 | 90 | 1019.0 |